Weather History for KIKK - September, 2013

Change the Weather History Date:

Sunday, September 1, 2013

  Actual Average Record
Temperature  
Mean Temperature 74 °F -  
Max Temperature 82 °F 84 °F 98 °F (2011)
Min Temperature 66 °F 59 °F 46 °F (1987)
Cooling Degree Days 8    
Growing Degree Days 24 (Base 50)    
Moisture  
Dew Point 69 °F    
Average Humidity 88    
Maximum Humidity 100    
Minimum Humidity 66    
Precipitation  
Precipitation 0.00 in - - ()
Sea Level Pressure  
Sea Level Pressure 29.80 in    
Wind  
Wind Speed 3 mph (WSW)    
Max Wind Speed 7 mph    
Max Gust Speed -    
Visibility 6 miles    
Events Fog , Rain , Thunderstorm    
Averages and records for this station are not official NWS values.
T = Trace of Precipitation, MM = Missing Value Source: NWS Daily Summary

Daily Weather History Graph

Daily Weather History Graph

Search for Another Location

Airport or City:

Trip Planner

Search our weather history database for the weather conditions in past years. The results will help you decide how hot, cold, wet, or windy it might be!

Date:

Astronomy

Sep. 01, 2013 Rise Set
Actual Time 6:18 AM CDT 7:23 PM CDT
Civil Twilight 5:50 AM CDT 7:51 PM CDT
Nautical Twilight 5:16 AM CDT 8:25 PM CDT
Astronomical Twilight 4:40 AM CDT 9:00 PM CDT
Moon 2:38 AM CDT (9/1) 5:01 PM CDT (9/1)
Length of Visible Light 14h 01m
Length of Day
13h 05m
Waning Crescent, 13% of the Moon is Illuminated
Sep 1
Waning Crescent
Sep 5
New
Sep 12
First Quarter
Sep 19
Full
Sep 26
Last Quarter

Hourly Weather History & Observations

Time (CDT) Temp. Heat Index Dew Point Humidity Pressure Visibility Wind Dir Wind Speed Gust Speed Precip Events Conditions
12:15 AM 68.9 °F - 67.6 °F 96% 29.82 in 7.0 mi North 3.5 mph - N/A   Clear
12:35 AM 68.5 °F - 67.6 °F 97% 29.82 in 5.0 mi North 3.5 mph - N/A   Clear
12:55 AM 68.9 °F - 68.0 °F 97% 29.81 in 5.0 mi Calm Calm - N/A   Clear
1:15 AM 68.9 °F - 67.8 °F 96% 29.81 in 7.0 mi NE 3.5 mph - N/A   Scattered Clouds
1:35 AM 68.0 °F - 67.3 °F 98% 29.80 in 5.0 mi Calm Calm - N/A   Scattered Clouds
1:55 AM 68.2 °F - 67.5 °F 98% 29.80 in 4.0 mi Calm Calm - N/A   Scattered Clouds
2:15 AM 67.6 °F - 67.1 °F 98% 29.79 in 3.0 mi Calm Calm - N/A   Clear
2:35 AM 67.5 °F - 67.1 °F 99% 29.79 in 2.5 mi Calm Calm - N/A   Clear
2:55 AM 67.5 °F - 66.9 °F 98% 29.79 in 2.5 mi Calm Calm - N/A   Clear
3:15 AM 67.1 °F - 66.7 °F 99% 29.78 in 1.0 mi Calm Calm - N/A   Mostly Cloudy
3:35 AM 67.3 °F - 67.1 °F 99% 29.79 in 2.0 mi Calm Calm - N/A   Clear
3:55 AM 67.5 °F - 67.3 °F 99% 29.79 in 3.0 mi Calm Calm - N/A   Clear
4:15 AM 67.6 °F - 67.3 °F 99% 29.79 in 3.0 mi Calm Calm - N/A   Mostly Cloudy
4:35 AM 66.9 °F - 66.6 °F 99% 29.79 in 2.5 mi Calm Calm - N/A   Overcast
4:55 AM 67.3 °F - 66.9 °F 99% 29.79 in 3.0 mi East 4.6 mph - N/A   Overcast
5:15 AM 67.6 °F - 67.3 °F 99% 29.79 in 2.5 mi East 4.6 mph - N/A   Overcast
5:35 AM 67.8 °F - 67.6 °F 99% 29.79 in 0.5 mi Calm Calm - N/A Fog Fog
5:55 AM 68.0 °F - 67.6 °F 99% 29.78 in 0.2 mi ESE 4.6 mph - N/A Fog Fog
6:15 AM 68.0 °F - 67.6 °F 99% 29.79 in 0.2 mi Calm Calm - N/A Fog Fog
6:35 AM 68.0 °F - 67.6 °F 99% 29.79 in 0.2 mi Calm Calm - N/A Fog Fog
6:55 AM 67.6 °F - 67.5 °F 99% 29.79 in 0.2 mi Calm Calm - N/A Fog Fog
7:15 AM 68.0 °F - 67.8 °F 99% 29.79 in 0.2 mi Calm Calm - N/A Fog Fog
7:35 AM 68.4 °F - 68.2 °F 99% 29.80 in 0.2 mi Calm Calm - N/A Fog Fog
7:55 AM 68.2 °F - 68.0 °F 99% 29.80 in 0.2 mi West 3.5 mph - N/A Fog Fog
8:15 AM 68.7 °F - 68.5 °F 99% 29.81 in 0.2 mi WNW 4.6 mph - N/A Fog Fog
8:35 AM 69.1 °F - 69.1 °F 100% 29.79 in 0.5 mi WSW 3.5 mph - N/A Fog Fog
8:55 AM 69.6 °F - 69.4 °F 99% 29.80 in 1.8 mi Calm Calm - N/A   Overcast
9:15 AM 69.8 °F - 69.4 °F 99% 29.82 in 2.5 mi WSW 3.5 mph - N/A   Overcast
9:35 AM 70.3 °F - 69.8 °F 98% 29.82 in 3.0 mi West 5.8 mph - N/A   Overcast
9:55 AM 71.6 °F - 70.0 °F 95% 29.83 in 5.0 mi West 5.8 mph - N/A   Overcast
10:15 AM 72.1 °F - 70.0 °F 93% 29.82 in 7.0 mi West 3.5 mph - N/A   Overcast
10:35 AM 72.5 °F - 69.3 °F 90% 29.82 in 7.0 mi West 3.5 mph - N/A   Overcast
10:55 AM 72.7 °F - 69.1 °F 88% 29.82 in 7.0 mi WNW 3.5 mph - N/A   Overcast
11:15 AM 72.9 °F - 68.9 °F 87% 29.82 in 7.0 mi West 5.8 mph - N/A   Overcast
11:35 AM 73.8 °F - 69.4 °F 86% 29.82 in 7.0 mi West 4.6 mph - N/A   Overcast
11:55 AM 74.8 °F - 69.6 °F 84% 29.82 in 7.0 mi West 5.8 mph - N/A   Overcast
12:15 PM 75.2 °F - 69.4 °F 82% 29.82 in 10.0 mi West 4.6 mph - N/A   Overcast
12:35 PM 75.4 °F - 69.8 °F 83% 29.82 in 10.0 mi WNW 3.5 mph - N/A   Overcast
12:55 PM 75.9 °F - 69.1 °F 79% 29.82 in 10.0 mi Calm Calm - N/A   Overcast
1:15 PM 78.4 °F - 69.6 °F 74% 29.81 in 10.0 mi WNW 3.5 mph - N/A   Overcast
1:35 PM 78.8 °F - 68.7 °F 71% 29.81 in 10.0 mi Calm Calm - N/A   Mostly Cloudy
1:55 PM 79.3 °F - 68.0 °F 68% 29.80 in 10.0 mi West 3.5 mph - N/A   Scattered Clouds
2:15 PM 80.2 °F 83.3 °F 69.6 °F 70% 29.80 in 10.0 mi West 4.6 mph - N/A   Scattered Clouds
2:35 PM 80.6 °F 83.6 °F 69.3 °F 68% 29.79 in 10.0 mi SW 4.6 mph - N/A   Clear
2:55 PM 81.3 °F 84.6 °F 69.3 °F 67% 29.79 in 10.0 mi Calm Calm - N/A   Scattered Clouds
3:15 PM 80.2 °F 83.0 °F 68.5 °F 67% 29.79 in 10.0 mi SW 6.9 mph - N/A   Scattered Clouds
3:35 PM 81.5 °F 84.9 °F 69.8 °F 67% 29.79 in 10.0 mi WSW 5.8 mph - N/A   Scattered Clouds
3:55 PM 81.5 °F 84.8 °F 69.3 °F 66% 29.79 in 10.0 mi WSW 5.8 mph - N/A   Scattered Clouds
4:15 PM 81.3 °F 84.6 °F 69.4 °F 67% 29.79 in 10.0 mi WSW 6.9 mph - N/A   Mostly Cloudy
4:35 PM 81.3 °F 84.8 °F 70.0 °F 68% 29.79 in 10.0 mi WSW 4.6 mph - N/A   Mostly Cloudy
4:55 PM 81.7 °F 85.2 °F 69.8 °F 67% 29.78 in 10.0 mi West 4.6 mph - N/A   Mostly Cloudy
5:15 PM 81.3 °F 84.8 °F 70.0 °F 68% 29.77 in 10.0 mi WSW 6.9 mph - N/A   Scattered Clouds
5:35 PM 81.0 °F 84.6 °F 70.3 °F 70% 29.77 in 10.0 mi West 3.5 mph - N/A   Clear
5:55 PM 80.6 °F 84.2 °F 70.7 °F 72% 29.77 in 10.0 mi Calm Calm - N/A   Clear
6:15 PM 80.2 °F 83.7 °F 70.9 °F 73% 29.78 in 10.0 mi West 3.5 mph - N/A   Clear
6:35 PM 79.9 °F - 71.4 °F 75% 29.77 in 10.0 mi SW 3.5 mph - N/A   Clear
6:55 PM 78.3 °F - 71.1 °F 78% 29.77 in 10.0 mi SW 3.5 mph - N/A   Clear
7:15 PM 75.7 °F - 71.6 °F 87% 29.78 in 10.0 mi Calm Calm - N/A   Clear
7:35 PM 74.5 °F - 71.1 °F 89% 29.78 in 10.0 mi Calm Calm - N/A   Clear
7:55 PM 74.5 °F - 70.3 °F 87% 29.78 in 10.0 mi Calm Calm - N/A   Clear
8:15 PM 73.4 °F - 70.2 °F 90% 29.79 in 10.0 mi Calm Calm - N/A   Clear
8:35 PM 72.9 °F - 70.2 °F 91% 29.79 in 10.0 mi South 3.5 mph - N/A   Clear
8:55 PM 73.4 °F - 70.0 °F 89% 29.78 in 10.0 mi SE 3.5 mph - N/A   Clear
9:15 PM 74.7 °F - 70.0 °F 85% 29.79 in 10.0 mi South 5.8 mph - N/A   Scattered Clouds
9:35 PM 74.7 °F - 70.5 °F 87% 29.79 in 10.0 mi SSE 4.6 mph - N/A   Mostly Cloudy
9:55 PM 74.5 °F - 70.9 °F 88% 29.79 in 10.0 mi South 6.9 mph - N/A   Overcast
10:15 PM 74.3 °F - 71.1 °F 90% 29.79 in 10.0 mi South 4.6 mph - N/A Thunderstorm Overcast
10:35 PM 73.4 °F - 70.9 °F 92% 29.80 in 7.0 mi South 4.6 mph - N/A Rain Light Rain
10:55 PM 72.7 °F - 70.9 °F 94% 29.82 in 7.0 mi NE 5.8 mph - N/A   Mostly Cloudy
11:15 PM 73.4 °F - 71.1 °F 92% 29.82 in 7.0 mi Calm Calm - N/A   Mostly Cloudy
11:35 PM 72.1 °F - 70.3 °F 94% 29.79 in 7.0 mi SSW 6.9 mph - N/A   Scattered Clouds
11:55 PM 72.0 °F - 70.2 °F 94% 29.77 in 7.0 mi SW 5.8 mph - N/A   Clear